Wind_Speed
7 6 5 4 4 3 1 1 1 2 3 4 5 6 7 7 8 8 8 9 9 9 9 9 8 8 8 8 8 8 8 7 7 7 7 6 6 6 7 6 6 5 5 5 4 3 3 2 1
7 7 6 6 4 3 2 1 1 2 3 4 5 6 7 7 7 8 8 9 9 9 9 9 8 8 8 8 8 8 8 8 7 7 7 6 6 6 6 6 5 5 5 5 5 3 3 2 1
9 8 7 6 5 5 4 2 2 2 3 4 4 5 7 7 8 8 8 9 9 10 9 9 8 8 8 8 8 8 8 8 7 7 7 7 6 6 6 6 5 5 5 5 5 4 3 2 2
9 9 8 7 6 6 5 4 4 3 4 5 5 5 7 7 8 9 9 10 10 10 10 9 8 8 8 8 8 8 8 8 8 8 8 7 7 6 6 6 5 5 5 5 4 4 3 2 2
10 9 8 7 7 7 7 6 5 4 5 5 6 6 7 7 7 8 9 10 10 10 10 10 9 9 9 8 8 8 8 8 8 8 8 8 8 7 6 6 5 5 5 5 5 4 4 3 4
11 10 9 9 9 9 9 7 6 6 7 7 6 6 7 7 7 8 9 10 10 10 10 10 9 9 9 8 8 8 8 8 8 8 8 8 7 7 7 6 6 5 5 5 5 5 4 4 4
11 11 10 10 10 10 10 9 8 7 9 8 8 7 7 7 8 8 9 9 10 11 11 10 10 9 9 8 8 8 8 8 8 7 8 8 7 7 7 6 6 6 6 6 5 4 4 4 4
12 12 11 11 11 11 11 10 9 9 9 9 9 8 8 8 8 9 9 9 10 11 10 10 10 10 9 9 9 9 9 9 8 8 8 8 7 7 7 6 6 6 6 6 5 5 5 5 6
13 12 11 12 12 12 12 12 11 10 10 10 10 9 9 8 9 9 10 10 10 10 10 10 10 10 10 10 9 10 9 9 9 8 8 8 7 7 7 6 6 6 6 6 6 6 6 6 6
14 13 12 12 13 13 13 13 13 12 11 11 11 11 10 10 10 10 10 11 11 11 11 11 11 11 11 10 10 10 10 10 10 8 8 7 7 7 7 7 7 7 7 7 7 7 7 7 7
15 14 14 14 14 14 15 15 13 13 12 12 12 12 11 11 12 11 11 11 12 11 11 11 11 11 11 11 11 12 12 11 10 9 9 8 7 7 7 7 8 8 7 7 8 8 8 8 8
16 16 16 16 16 15 15 15 15 14 13 13 13 13 12 12 13 12 13 12 12 12 12 12 12 12 12 12 13 13 13 11 11 10 9 10 9 8 8 8 8 8 8 8 8 9 9 9 9
17 17 17 17 17 16 15 15 15 14 14 14 14 14 13 14 13 14 14 14 13 13 14 14 13 14 13 13 14 14 13 12 12 11 10 11 10 9 9 9 10 10 9 9 9 9 10 11 10
17 17 17 17 17 17 16 16 16 14 14 15 16 16 15 15 15 15 15 15 14 14 14 15 15 15 15 15 15 15 14 13 13 13 12 11 10 10 10 10 10 10 10 10 10 10 10 12 11
17 17 17 17 18 17 17 17 17 15 15 16 16 16 16 16 15 15 15 15 15 15 15 15 15 15 16 16 16 16 15 15 15 15 13 12 12 11 11 11 10 10 11 11 11 11 11 11 11
17 17 17 17 18 19 19 17 16 17 17 16 16 16 16 16 15 16 16 16 16 16 16 16 16 16 16 16 16 16 16 16 16 15 15 14 13 13 12 11 11 11 11 12 12 12 12 12 11
18 18 18 18 19 20 20 18 18 19 18 18 17 18 18 17 16 17 17 18 17 17 17 17 17 17 16 16 17 17 17 18 17 15 16 15 14 14 13 13 12 12 12 11 12 12 13 13 12
19 19 18 19 20 21 21 20 18 19 19 19 19 19 19 18 18 18 19 19 19 18 18 18 18 18 17 17 18 18 18 17 18 17 16 15 15 15 15 15 14 14 13 13 12 12 12 12 11
21 20 19 19 21 22 21 20 19 19 19 19 20 19 18 18 18 19 19 19 19 19 19 19 18 19 18 18 19 19 18 17 17 17 17 16 16 16 17 16 16 15 14 13 12 12 12 12 12
23 22 21 21 22 23 22 21 20 20 20 20 20 19 18 18 18 19 20 20 19 19 19 19 18 18 18 19 19 19 19 18 18 17 17 17 17 16 16 16 17 16 14 14 13 13 13 13 13
23 22 22 22 22 23 23 23 21 21 20 20 20 19 19 19 19 19 20 20 19 19 19 19 18 18 18 19 19 19 18 18 19 18 17 18 18 17 17 16 16 16 14 14 14 14 14 13 14
22 21 22 22 23 23 24 24 21 22 21 20 20 20 20 21 21 20 20 20 20 19 19 19 18 18 18 19 19 19 19 18 18 18 18 19 18 17 17 16 17 16 15 14 14 15 14 14 14
22 21 22 22 23 24 24 25 22 21 21 21 21 20 20 21 21 21 21 20 19 18 18 18 19 18 18 18 19 19 19 20 19 19 19 19 18 17 17 17 17 16 15 15 15 15 16 16 15
22 23 23 23 24 24 23 25 23 21 21 21 21 21 21 21 21 21 20 19 19 18 18 18 18 18 18 18 19 18 19 20 20 19 19 19 19 18 18 17 17 17 17 16 16 16 17 17 17
23 23 24 24 24 24 23 24 21 20 20 21 21 21 21 21 21 21 20 20 20 20 19 19 19 18 18 18 18 18 19 19 20 19 18 18 18 18 18 18 18 18 17 17 17 18 18 18 18
24 24 24 25 25 23 22 23 20 19 19 20 20 21 22 22 22 22 22 22 22 22 21 21 21 20 19 19 18 17 17 18 18 18 18 18 19 19 19 20 20 19 19 19 19 19 19 19 19
24 24 24 25 25 24 23 22 21 20 19 20 20 21 22 21 22 22 22 22 22 21 21 21 21 20 19 18 17 17 16 16 17 18 18 17 18 18 19 20 20 20 20 20 20 21 20 20 20
24 23 23 24 25 25 24 23 21 20 19 19 19 21 21 22 22 22 22 22 21 21 20 21 20 19 18 18 17 17 17 17 18 19 19 19 19 18 18 18 20 20 20 21 21 21 21 21 21
24 24 24 25 26 26 25 24 22 21 20 20 20 20 21 22 22 22 22 21 20 19 20 20 19 19 18 18 17 16 16 17 18 19 19 19 19 18 18 19 20 21 21 22 22 22 21 21 22
25 25 25 26 27 26 26 25 23 22 21 21 21 21 21 22 22 22 22 21 21 21 20 20 20 19 18 17 17 17 17 17 18 18 19 19 19 19 19 20 21 22 22 21 21 21 22 22 23
Wind_Direction
209 215 222 223 230 237 248 312 339 336 346 347 359 2 5 12 8 4 3 359 358 355 352 351 353 350 351 352 355 356 355 352 349 344 342 340 340 339 337 339 345 340 351 356 353 3 2 16 20
221 224 228 232 233 227 242 283 309 328 340 348 2 354 352 1 358 356 350 348 346 344 342 346 348 350 350 351 351 350 348 345 342 337 334 332 330 328 326 327 328 330 336 346 350 344 337 333 305
226 226 228 233 232 231 249 253 254 294 325 335 344 345 345 344 346 342 338 336 335 334 333 335 339 343 347 347 345 345 344 340 337 332 328 326 325 321 317 317 314 316 322 329 332 331 325 321 292
227 226 227 230 228 235 244 255 282 297 309 320 327 330 334 338 339 337 333 330 327 328 329 331 334 336 341 343 341 340 339 336 333 328 322 320 318 318 316 311 309 306 308 312 312 308 311 296 274
227 228 228 231 236 241 245 255 272 292 305 316 323 323 329 332 334 335 333 328 324 324 326 327 328 330 332 334 335 336 335 332 329 325 320 314 310 307 306 307 305 301 298 299 299 295 285 269 274
230 232 231 233 240 245 250 257 264 281 306 314 318 323 328 332 331 330 328 328 325 324 325 324 323 325 327 329 330 332 333 329 325 323 319 314 307 302 297 299 297 293 286 281 284 288 277 264 268
236 238 237 242 248 251 257 260 265 278 293 301 311 319 325 323 325 325 325 325 323 326 325 324 322 321 320 320 320 321 325 322 319 319 317 313 305 299 292 292 289 285 280 272 276 278 269 267 271
239 241 242 247 251 256 258 263 270 279 287 294 307 318 319 318 318 320 319 320 322 323 323 322 322 317 315 313 312 313 316 316 315 315 311 307 305 298 286 284 278 276 277 271 273 275 268 271 272
239 243 245 249 256 259 262 265 272 284 287 291 303 312 314 314 316 317 315 316 318 319 320 319 318 314 313 311 309 310 310 309 309 306 303 302 298 292 284 279 274 269 265 266 271 272 267 266 266
242 246 247 251 257 261 262 265 274 281 287 293 301 306 309 311 314 314 313 314 314 315 314 313 311 312 310 308 306 309 306 302 303 298 297 296 292 286 280 277 272 266 264 264 268 268 266 260 262
245 250 253 257 258 261 265 266 273 279 283 290 294 299 305 309 311 314 315 313 312 312 311 312 309 305 304 304 300 302 304 298 295 293 292 287 281 278 273 276 275 272 266 266 265 260 261 258 256
246 250 255 259 262 264 265 269 273 279 281 286 291 293 297 301 307 312 313 313 310 308 309 310 306 301 299 299 299 296 300 291 292 286 285 281 274 271 270 271 271 268 264 261 260 259 257 256 254
249 250 256 259 262 264 266 268 272 275 275 277 283 290 295 297 301 306 308 308 307 307 309 308 304 300 296 295 295 294 293 288 285 281 279 277 273 269 271 271 267 261 261 261 258 258 256 256 255
253 252 254 257 260 261 262 267 272 271 271 275 280 286 291 295 299 303 305 306 305 306 306 303 299 299 297 293 292 290 287 284 279 278 280 272 267 268 267 268 265 260 260 261 260 259 258 258 258
256 254 252 255 259 258 260 266 272 269 274 278 280 283 286 291 294 299 302 302 302 303 303 301 300 297 294 291 287 285 282 281 280 277 273 266 264 262 262 264 266 262 261 262 261 257 261 262 257
255 254 252 255 259 259 262 266 267 270 272 276 277 281 283 287 289 294 299 300 301 303 302 301 300 298 294 292 288 284 279 276 279 276 270 262 258 258 258 261 260 260 261 262 261 256 257 259 256
255 256 256 256 257 258 263 265 262 265 267 270 274 279 281 283 288 293 296 297 297 299 300 300 299 296 294 293 290 284 279 275 275 272 267 260 257 254 255 257 260 261 262 263 259 255 255 256 254
257 259 258 256 260 262 264 266 266 266 267 270 273 277 280 283 289 290 292 295 295 294 296 297 296 293 291 291 291 287 282 276 272 268 266 258 255 253 253 254 257 257 261 262 257 252 253 254 254
254 257 257 258 261 263 265 266 264 267 269 270 273 277 281 284 286 286 288 292 292 294 295 293 291 290 290 290 289 286 281 276 271 267 265 258 255 254 251 251 256 259 259 255 255 253 253 254 253
255 258 259 260 260 263 265 266 266 267 271 272 272 276 279 281 283 286 287 288 290 293 292 290 289 288 287 286 284 282 278 272 266 260 258 256 257 254 250 251 254 254 253 250 255 253 252 253 251
257 260 262 262 260 263 266 266 267 267 272 271 272 275 278 279 281 284 286 289 289 290 289 286 285 288 287 285 282 282 278 270 263 257 254 256 255 253 250 250 250 250 250 249 249 252 252 251 251
260 263 261 261 261 261 266 269 269 268 269 271 272 274 277 279 279 283 286 287 288 288 287 285 285 286 288 286 283 280 275 269 264 256 253 256 256 256 251 250 248 250 247 245 246 249 249 250 253
260 261 262 261 261 261 263 269 270 269 270 272 272 274 277 277 278 282 285 287 286 284 285 286 286 288 288 286 282 278 274 268 264 259 256 254 256 256 252 248 248 249 246 246 246 247 246 248 253
257 258 261 262 262 263 266 270 272 270 271 271 270 273 275 276 278 281 283 285 285 283 283 285 287 288 287 286 283 277 274 268 264 261 257 256 255 252 250 248 246 248 248 248 246 246 246 248 253
257 259 261 262 263 267 269 270 274 273 271 269 268 270 273 274 277 279 279 282 284 283 283 284 285 285 284 286 286 285 274 266 263 257 255 254 253 252 250 246 245 246 248 248 247 248 249 252 255
258 260 261 265 268 269 267 269 273 274 273 272 271 271 274 274 276 277 279 281 282 282 281 281 281 282 282 284 286 284 276 263 258 256 256 253 250 251 251 249 248 246 247 247 249 252 254 254 255
258 259 262 265 268 270 270 271 272 274 274 274 275 274 276 276 277 278 278 278 280 279 278 278 277 279 279 280 281 279 274 263 258 256 256 255 253 253 251 246 245 246 248 250 251 254 255 255 255
256 258 259 262 267 271 272 274 275 276 278 279 278 274 274 276 278 278 278 279 278 275 275 276 275 275 276 278 279 276 270 266 262 259 259 257 256 254 250 246 245 245 248 251 254 255 254 255 257
254 256 258 261 264 268 272 274 276 277 279 278 278 276 272 276 278 277 277 278 276 275 277 279 280 277 277 276 274 273 270 266 263 261 259 257 258 254 251 250 249 249 251 253 254 254 256 257 259
255 256 257 259 262 266 271 274 275 277 277 279 280 277 276 277 278 278 278 276 275 277 277 277 280 278 276 274 273 271 269 268 265 261 261 259 257 255 254 254 255 254 254 255 255 257 258 258 257
Height
5884 5884 5885 5887 5888 5888 5887 5888 5887 5887 5887 5887 5887 5887 5887 5887 5888 5889 5887 5885 5884 5884 5883 5882 5881 5880 5880 5879 5879 5878 5879 5879 5879 5878 5879 5879 5879 5878 5878 5878 5878 5878 5878 5878 5878 5878 5879 5879 5880
5883 5884 5886 5887 5887 5887 5887 5887 5887 5887 5887 5887 5887 5887 5887 5886 5887 5886 5886 5885 5884 5883 5882 5882 5881 5880 5879 5879 5878 5878 5878 5878 5878 5878 5878 5878 5878 5878 5878 5878 5878 5877 5877 5878 5878 5878 5879 5879 5880
5882 5884 5886 5886 5886 5886 5887 5887 5887 5887 5887 5887 5886 5886 5887 5886 5886 5886 5885 5884 5884 5883 5882 5881 5880 5879 5879 5878 5878 5877 5877 5877 5877 5877 5877 5877 5877 5877 5877 5877 5877 5877 5877 5877 5878 5878 5879 5879 5879
5882 5883 5885 5885 5885 5886 5886 5886 5886 5886 5886 5886 5886 5886 5886 5886 5886 5885 5884 5884 5883 5882 5881 5880 5879 5878 5878 5877 5877 5876 5876 5876 5876 5876 5876 5876 5876 5876 5876 5876 5876 5876 5877 5877 5877 5878 5878 5879 5879
5881 5882 5883 5884 5884 5884 5885 5885 5885 5886 5885 5885 5885 5885 5885 5885 5885 5884 5883 5883 5881 5881 5880 5879 5878 5877 5877 5876 5876 5875 5875 5874 5874 5874 5874 5874 5874 5874 5874 5875 5875 5875 5876 5876 5877 5877 5878 5878 5879
5880 5881 5882 5882 5882 5883 5883 5884 5884 5884 5884 5884 5884 5884 5884 5884 5883 5883 5882 5882 5881 5880 5879 5877 5877 5876 5875 5875 5874 5874 5874 5873 5873 5873 5873 5873 5873 5873 5873 5873 5874 5874 5874 5875 5876 5876 5877 5878 5878
5879 5880 5880 5881 5881 5882 5882 5882 5882 5883 5883 5883 5883 5883 5883 5883 5882 5882 5881 5880 5879 5878 5877 5876 5875 5875 5874 5874 5873 5873 5872 5872 5871 5871 5872 5872 5872 5871 5872 5872 5872 5873 5873 5874 5874 5875 5876 5877 5877
5877 5879 5878 5879 5880 5880 5880 5880 5881 5881 5882 5882 5882 5882 5882 5882 5881 5880 5880 5879 5878 5877 5876 5875 5874 5873 5872 5872 5872 5871 5871 5870 5869 5870 5870 5870 5870 5870 5870 5871 5871 5871 5872 5872 5873 5874 5875 5875 5876
5875 5877 5877 5877 5878 5878 5878 5878 5879 5880 5880 5880 5880 5881 5880 5880 5879 5878 5878 5877 5876 5875 5874 5873 5872 5872 5871 5870 5870 5870 5869 5869 5868 5868 5868 5868 5869 5869 5869 5869 5870 5870 5870 5871 5871 5872 5873 5873 5874
5874 5875 5875 5875 5876 5876 5876 5877 5877 5877 5878 5878 5878 5878 5878 5878 5877 5877 5876 5875 5874 5874 5872 5872 5870 5870 5870 5869 5868 5868 5867 5867 5867 5866 5866 5866 5867 5867 5868 5868 5868 5868 5869 5869 5870 5871 5871 5872 5873
5871 5873 5873 5873 5873 5874 5874 5874 5875 5875 5876 5876 5876 5876 5876 5876 5875 5874 5874 5873 5872 5871 5871 5870 5869 5868 5868 5867 5866 5865 5865 5865 5865 5864 5864 5864 5865 5865 5866 5866 5867 5867 5867 5868 5868 5869 5869 5870 5871
5869 5870 5870 5871 5870 5871 5872 5872 5873 5873 5874 5874 5874 5874 5874 5873 5873 5872 5871 5870 5870 5869 5868 5867 5866 5866 5865 5864 5863 5862 5862 5862 5862 5862 5862 5862 5862 5863 5863 5864 5865 5865 5865 5866 5866 5867 5867 5868 5869
5866 5867 5867 5868 5868 5868 5869 5869 5870 5871 5872 5872 5872 5872 5871 5871 5870 5869 5869 5868 5867 5866 5865 5864 5863 5863 5862 5861 5861 5860 5859 5860 5859 5860 5859 5860 5860 5861 5861 5861 5862 5862 5863 5863 5864 5865 5865 5866 5867
5863 5864 5864 5865 5865 5865 5866 5866 5867 5868 5868 5869 5869 5869 5868 5868 5867 5866 5866 5865 5864 5863 5862 5861 5860 5859 5859 5858 5858 5857 5856 5856 5857 5856 5856 5857 5858 5858 5859 5859 5860 5860 5860 5861 5862 5863 5863 5864 5864
5860 5861 5862 5862 5862 5862 5863 5864 5864 5865 5865 5865 5865 5866 5865 5864 5864 5863 5862 5861 5861 5860 5859 5858 5857 5856 5855 5855 5854 5853 5853 5852 5853 5853 5853 5853 5854 5855 5856 5857 5857 5858 5858 5859 5860 5860 5861 5861 5862
5857 5858 5858 5859 5859 5859 5860 5861 5861 5860 5861 5861 5862 5862 5862 5861 5860 5860 5859 5858 5857 5856 5855 5854 5853 5853 5852 5851 5850 5849 5849 5848 5849 5849 5850 5850 5851 5852 5853 5854 5855 5855 5855 5856 5857 5857 5858 5859 5860
5853 5854 5855 5856 5855 5855 5855 5857 5857 5856 5857 5858 5858 5858 5858 5858 5857 5856 5855 5854 5853 5852 5851 5850 5849 5849 5847 5846 5846 5845 5845 5844 5845 5845 5846 5847 5848 5849 5850 5851 5851 5852 5853 5853 5854 5855 5855 5856 5857
5850 5850 5851 5852 5851 5851 5851 5852 5853 5852 5853 5854 5854 5854 5854 5854 5853 5853 5852 5850 5849 5848 5847 5846 5845 5844 5843 5842 5842 5841 5840 5840 5840 5841 5842 5843 5844 5845 5846 5847 5848 5849 5850 5850 5851 5852 5852 5853 5854
5845 5846 5847 5848 5847 5847 5847 5848 5849 5849 5849 5850 5850 5850 5850 5849 5849 5848 5847 5846 5845 5844 5843 5842 5841 5840 5839 5838 5837 5836 5835 5836 5836 5837 5838 5839 5840 5841 5842 5843 5844 5845 5846 5847 5848 5849 5849 5850 5851
5841 5842 5843 5844 5843 5842 5843 5844 5845 5845 5845 5845 5845 5845 5845 5845 5844 5843 5843 5842 5840 5840 5839 5838 5836 5835 5834 5834 5833 5832 5831 5831 5832 5833 5834 5835 5836 5837 5838 5839 5840 5841 5842 5843 5844 5845 5846 5847 5848
5837 5838 5839 5839 5838 5838 5839 5840 5841 5841 5841 5841 5841 5841 5841 5840 5840 5839 5838 5837 5836 5835 5834 5833 5832 5831 5830 5829 5828 5828 5827 5827 5827 5828 5829 5830 5831 5832 5834 5835 5836 5837 5838 5839 5840 5842 5843 5844 5845
5833 5834 5833 5833 5833 5833 5834 5834 5837 5836 5836 5837 5837 5836 5836 5836 5835 5835 5833 5832 5831 5830 5829 5828 5828 5827 5825 5824 5823 5823 5823 5823 5823 5824 5825 5826 5827 5828 5829 5830 5832 5833 5835 5836 5836 5838 5839 5840 5841
5828 5828 5828 5828 5828 5829 5829 5830 5832 5832 5832 5832 5832 5832 5831 5831 5830 5829 5828 5827 5826 5825 5825 5824 5823 5822 5821 5820 5819 5818 5817 5817 5818 5819 5820 5821 5822 5824 5825 5826 5827 5829 5830 5831 5833 5834 5835 5836 5837
5823 5823 5823 5823 5824 5824 5826 5825 5827 5827 5827 5827 5827 5827 5826 5826 5825 5824 5823 5822 5821 5820 5820 5819 5818 5817 5816 5815 5814 5813 5813 5813 5813 5814 5815 5816 5818 5819 5820 5821 5823 5824 5826 5827 5828 5829 5830 5832 5833
5818 5819 5819 5818 5819 5820 5821 5820 5822 5822 5822 5822 5822 5821 5820 5820 5820 5819 5818 5817 5816 5816 5815 5814 5813 5812 5811 5810 5809 5808 5808 5808 5809 5809 5810 5811 5813 5814 5815 5816 5818 5820 5821 5822 5824 5825 5826 5827 5828
5813 5814 5815 5815 5815 5816 5816 5816 5818 5817 5816 5816 5816 5816 5815 5815 5814 5814 5813 5812 5811 5810 5809 5809 5808 5807 5806 5805 5804 5803 5802 5803 5804 5805 5805 5806 5808 5809 5810 5811 5813 5815 5816 5818 5819 5820 5821 5822 5823
5807 5808 5810 5810 5809 5810 5810 5811 5812 5812 5811 5811 5811 5811 5810 5810 5809 5808 5807 5806 5805 5804 5803 5802 5801 5801 5800 5799 5799 5798 5797 5798 5799 5800 5801 5802 5803 5803 5804 5805 5807 5809 5811 5812 5814 5815 5816 5817 5818
5802 5803 5804 5803 5803 5804 5805 5806 5807 5807 5807 5807 5806 5806 5805 5804 5803 5802 5802 5801 5799 5798 5797 5797 5796 5795 5795 5795 5794 5794 5794 5794 5795 5796 5796 5797 5798 5798 5798 5799 5802 5803 5805 5807 5808 5809 5810 5811 5813
5797 5798 5798 5798 5798 5799 5799 5802 5801 5801 5801 5801 5801 5800 5800 5799 5798 5797 5796 5795 5794 5793 5792 5791 5790 5790 5790 5790 5790 5789 5789 5789 5790 5791 5792 5792 5792 5793 5793 5795 5796 5798 5799 5801 5802 5803 5804 5805 5806
5790 5791 5792 5793 5793 5793 5794 5798 5795 5796 5795 5795 5795 5794 5794 5793 5793 5791 5790 5789 5788 5787 5786 5786 5785 5785 5785 5785 5784 5784 5784 5785 5785 5786 5786 5787 5787 5788 5788 5790 5791 5792 5793 5794 5796 5797 5798 5799 5800